[[{"header":{"parameterUnit":"m.s-1","parameterCategory":1,"la1":30.2991,"la2":30.254,"lo1":-89.0895,"lo2":-89.0444,"dy":0.0017,"dx":0.0017,"nx":28,"ny":28,"refTime":"2023-04-03T21:00:00:Z","depth":0,"parameterNumber":2,"parameterNumberName":"U-component_of_WINDS"},"data":[0,0,0,0,0,0,0,0,0,0,0,0,0,0,0,0,0,0,0,0,0,0,0,0,0,0,0,0,0,0,0,0,0,0,0,0,0,0,0,0,0,0,0,0,0,0,0,0,0,0,0,0,0,0,0,0,0,0,-2.5932,-2.5932,0,-2.5919,-2.5919,-2.5919,-2.5881,-2.588,-2.5879,-2.5879,-2.5866,-2.5866,-2.5867,0,0,0,0,0,0,0,0,0,0,0,0,0,-2.5924,-2.5924,-2.5932,-2.5932,-2.5931,-2.5919,-2.5919,-2.5919,-2.5881,-2.588,-2.5879,-2.5878,-2.5866,-2.5866,-2.5867,0,0,0,0,0,0,0,0,0,0,0,0,0,-2.5921,-2.5924,-2.5932,-2.5911,-2.5909,-2.5919,-2.5919,-2.5919,-2.5881,-2.588,-2.5879,-2.5878,-2.5865,-2.5866,-2.5867,-2.5896,0,0,-2.5869,-2.5869,0,0,0,0,0,0,0,0,-2.5921,-2.5921,-2.5914,-2.5913,-2.591,-2.59,-2.5912,-2.5911,-2.5882,-2.5892,-2.5879,-2.5877,-2.5878,-2.5878,-2.5878,-2.5895,-2.5895,-2.5869,-2.5869,-2.5869,-2.587,0,0,0,0,0,0,0,-2.5921,-2.5922,-2.5927,-2.5914,-2.5912,-2.5903,-2.5901,-2.5911,-2.5892,-2.5891,-2.5888,-2.5887,-2.5877,-2.5878,-2.5878,-2.5895,-2.5869,-2.5869,-2.587,-2.587,-2.5936,-2.5937,0,0,0,0,0,0,-2.5924,-2.5922,-2.5927,-2.5926,-2.5913,-2.5904,-2.5902,-2.5905,-2.5892,-2.5889,-2.5888,-2.5886,-2.5877,-2.5877,-2.5877,-2.591,-2.5869,-2.587,-2.587,-2.5934,-2.5936,-2.5937,0,0,0,0,0,0,-2.5924,-2.5925,-2.5928,-2.5923,-2.5923,-2.5905,-2.5909,-2.5905,-2.5906,-2.589,-2.5887,-2.5892,-2.5876,-2.5876,-2.5892,-2.5909,-2.587,-2.5871,-2.5933,-2.5935,-2.5937,-2.5977,0,0,0,0,0,0,-2.5924,-2.5925,-2.5936,-2.5924,-2.5923,-2.5942,-2.591,-2.5906,-2.5907,-2.5903,-2.5893,-2.589,-2.5875,-2.5891,-2.5892,-2.5909,-2.5871,-2.5931,-2.5934,-2.5936,-2.5974,-2.598,-2.5985,0,0,0,0,0,-2.5924,-2.5948,-2.5937,-2.5937,-2.5936,-2.5943,-2.5943,-2.5925,-2.5909,-2.5919,-2.5909,-2.589,-2.5908,-2.5893,-2.5894,-2.5912,-2.593,-2.5933,-2.5936,-2.5971,-2.5979,-2.5985,0,0,0,0,0,0,-2.5962,-2.5946,-2.5933,-2.5953,-2.595,-2.5937,-2.5949,-2.5934,-2.5935,-2.5931,-2.591,-2.5908,-2.5926,-2.5921,-2.5905,-2.594,-2.5916,-2.5919,-2.5942,-2.5949,-2.5955,-2.5955,-2.5872,0,0,0,0,0,-2.5972,-2.5979,-2.5965,-2.5984,-2.5983,-2.5967,-2.5969,-2.5956,-2.5952,-2.595,-2.5941,-2.5938,-2.5942,-2.5946,-2.5949,-2.5974,-2.5971,-2.5987,-2.5992,-2.5997,-2.6,-2.6013,-2.602,-2.5947,-2.5947,-2.5947,0,0,-2.5994,-2.5986,-2.5992,-2.5992,-2.5987,-2.5995,-2.5966,-2.5975,-2.5981,-2.5952,-2.5965,-2.5959,-2.5954,-2.5974,-2.5983,-2.597,-2.602,-2.6001,-2.6005,-2.6005,-2.6017,-2.6024,-2.603,-2.5949,-2.5949,-2.5949,0,0,-2.6038,-2.6033,-2.6049,-2.6045,-2.604,-2.6029,-2.6033,-2.6022,-2.6017,-2.6031,-2.6009,-2.6016,-2.6025,-2.6022,-2.6022,-2.6067,-2.6049,-2.6069,-2.6098,-2.6111,-2.6116,-2.6121,-2.6137,-2.6143,-2.6072,-2.6072,-2.6072,0,-2.6066,-2.6077,-2.6059,-2.607,-2.607,-2.6045,-2.6061,-2.6059,-2.6054,-2.6056,-2.6042,-2.6053,-2.6047,-2.6067,-2.6078,-2.6079,-2.6082,-2.6069,-2.6117,-2.6122,-2.6126,-2.6141,-2.6147,-2.6074,-2.6074,-2.6074,-2.6073,0,-2.6111,-2.6119,-2.6133,-2.6129,-2.6132,-2.6145,-2.613,-2.6134,-2.6122,-2.6113,-2.6128,-2.6121,-2.6123,-2.6127,-2.6114,-2.6145,-2.6137,-2.6121,-2.6096,-2.6136,-2.6149,-2.6154,-2.6077,-2.6077,-2.6076,-2.6075,0,0,-2.6176,-2.6164,-2.6169,-2.6168,-2.616,-2.6166,-2.6179,-2.6181,-2.6186,-2.6185,-2.6195,-2.6203,-2.6188,-2.6188,-2.6176,-2.6187,-2.6223,-2.6169,-2.6169,-2.6179,-2.6256,-2.6268,-2.6274,-2.6212,-2.6213,-2.6214,-2.6256,0,-2.6217,-2.6237,-2.6222,-2.6246,-2.6253,-2.623,-2.6242,-2.6239,-2.6231,-2.6237,-2.6229,-2.6235,-2.6215,-2.6215,-2.6225,-2.6217,-2.6238,-2.6213,-2.6221,-2.6222,-2.6222,-2.6281,-2.6293,-2.6333,-2.6261,-2.6262,-2.6263,0,-2.6266,-2.6268,-2.6292,-2.6284,-2.6287,-2.6297,-2.6298,-2.6304,-2.6301,-2.6294,-2.6295,-2.628,-2.6293,-2.627,-2.6287,-2.627,-2.6273,-2.627,-2.6271,-2.6269,-2.6244,-2.6281,-2.6345,-2.6351,-2.6271,-2.627,-2.627,0,-2.6311,-2.6319,-2.6334,-2.6334,-2.6325,-2.6333,-2.633,-2.6325,-2.6328,-2.6329,-2.6331,-2.6334,-2.6335,-2.6338,-2.6324,-2.6309,-2.6343,-2.6319,-2.6338,-2.6339,-2.6345,-2.6344,-2.641,-2.6349,-2.6349,-2.6349,-2.6349,0,-2.6357,-2.6372,-2.6354,-2.6363,-2.638,-2.6364,-2.6381,-2.6376,-2.6372,-2.6381,-2.6362,-2.637,-2.6352,-2.6359,-2.6348,-2.6364,-2.6365,-2.636,-2.6357,-2.6361,-2.6362,-2.6362,-2.6358,-2.635,-2.635,-2.635,-2.6349,0,-2.6408,-2.6396,-2.6412,-2.6403,-2.6401,-2.6414,-2.6407,-2.6415,-2.6407,-2.6418,-2.642,-2.6407,-2.6414,-2.6401,-2.6407,-2.64,-2.6422,-2.6415,-2.6423,-2.642,-2.644,-2.6438,-2.6506,-2.6514,-2.6449,-2.645,-2.645,0,-2.6438,-2.6449,-2.6442,-2.6446,-2.6444,-2.6452,-2.6454,-2.6439,-2.6443,-2.6441,-2.645,-2.6455,-2.6459,-2.6471,-2.6462,-2.6467,-2.6459,-2.6483,-2.6459,-2.6463,-2.6458,-2.6457,-2.6458,-2.6487,-2.6488,-2.6488,-2.6489,0,-2.6492,-2.6486,-2.649,-2.6493,-2.6497,-2.6499,-2.6499,-2.6504,-2.6488,-2.6493,-2.65,-2.6503,-2.6509,-2.6514,-2.6517,-2.6514,-2.6499,-2.6497,-2.6501,-2.6505,-2.6509,-2.6506,-2.6434,-2.6495,-2.6494,-2.6494,-2.6494,-2.6493,-2.6532,-2.6542,-2.6538,-2.6544,-2.6543,-2.6544,-2.6552,-2.6546,-2.6551,-2.6555,-2.6546,-2.6555,-2.6553,-2.6554,-2.6553,-2.656,-2.655,-2.6557,-2.6558,-2.656,-2.6562,-2.6509,-2.6561,-2.6561,-2.6561,-2.6561,-2.656,0,-2.6585,-2.6582,-2.6588,-2.6589,-2.6594,-2.658,-2.658,-2.6585,-2.6594,-2.6593,-2.6597,-2.6605,-2.6611,-2.6604,-2.6609,-2.6616,-2.6609,-2.6618,-2.6616,-2.6616,-2.6572,-2.6567,-2.6623,-2.6623,-2.6623,-2.6623,-2.6623,-2.6623,-2.6612,-2.6627,-2.6621,-2.6636,-2.6633,-2.6642,-2.6643,-2.6644,-2.6643,-2.6654,-2.6659,-2.6654,-2.6651,-2.6655,-2.666,-2.6658,-2.666,-2.6671,-2.6666,-2.6625,-2.6619,-2.6613,-2.6608,-2.6672,-2.6672,-2.6709,-2.6709,-2.671]},{"header":{"parameterUnit":"m.s-1","parameterCategory":1,"la1":30.2991,"la2":30.254,"lo1":-89.0895,"lo2":-89.0444,"dy":0.0017,"dx":0.0017,"nx":28,"ny":28,"refTime":"2023-04-03T21:00:00:Z","depth":0,"parameterNumber":3,"parameterNumberName":"V-component_of_WINDS"},"data":[0,0,0,0,0,0,0,0,0,0,0,0,0,0,0,0,0,0,0,0,0,0,0,0,0,0,0,0,0,0,0,0,0,0,0,0,0,0,0,0,0,0,0,0,0,0,0,0,0,0,0,0,0,0,0,0,0,0,4.8992,4.8993,0,4.9019,4.9019,4.9019,4.9001,4.9,4.8999,4.8998,4.9022,4.9024,4.9025,0,0,0,0,0,0,0,0,0,0,0,0,0,4.8926,4.8927,4.8992,4.8993,4.8993,4.9019,4.9019,4.9019,4.9001,4.9,4.8999,4.8998,4.9022,4.9023,4.9025,0,0,0,0,0,0,0,0,0,0,0,0,0,4.8954,4.8928,4.8992,4.8987,4.8987,4.9019,4.9019,4.9019,4.9001,4.9,4.8999,4.8998,4.9021,4.9023,4.9025,4.9063,0,0,4.9032,4.9033,0,0,0,0,0,0,0,0,4.8952,4.8956,4.8987,4.8987,4.8987,4.9005,4.9004,4.9034,4.9001,4.8996,4.8998,4.8997,4.9017,4.902,4.9027,4.9064,4.9065,4.9032,4.9033,4.9034,4.9035,0,0,0,0,0,0,0,4.895,4.8955,4.9003,4.8988,4.8988,4.8983,4.8986,4.901,4.9013,4.8996,4.8995,4.8998,4.9017,4.9025,4.9028,4.9065,4.9032,4.9034,4.9035,4.9036,4.9138,4.9139,0,0,0,0,0,0,4.8949,4.8953,4.9002,4.9003,4.8966,4.8985,4.8988,4.9001,4.9013,4.9013,4.8999,4.8997,4.9022,4.9025,4.9028,4.9076,4.9034,4.9036,4.9037,4.9137,4.9138,4.914,0,0,0,0,0,0,4.8948,4.8953,4.9001,4.8978,4.8984,4.8988,4.9002,4.9002,4.901,4.9015,4.9015,4.9007,4.9021,4.9025,4.9056,4.9077,4.9037,4.9039,4.9135,4.9137,4.9139,4.917,0,0,0,0,0,0,4.8946,4.8953,4.8967,4.8979,4.8985,4.9028,4.9003,4.9003,4.9014,4.9012,4.9023,4.9023,4.9021,4.9053,4.9058,4.9079,4.9041,4.9133,4.9136,4.9138,4.9167,4.9173,4.9178,0,0,0,0,0,4.8943,4.8973,4.8968,4.8974,4.9003,4.9029,4.9032,4.903,4.9016,4.903,4.9034,4.9023,4.9073,4.9056,4.9061,4.9083,4.9132,4.9135,4.9138,4.9165,4.9172,4.9178,0,0,0,0,0,0,4.8962,4.8974,4.8969,4.9003,4.9016,4.9026,4.9044,4.9037,4.9052,4.9049,4.9045,4.9047,4.908,4.9084,4.9064,4.9122,4.91,4.9105,4.9118,4.9125,4.913,4.9129,4.9042,0,0,0,0,0,4.897,4.8991,4.9,4.903,4.9036,4.9039,4.905,4.9048,4.906,4.9064,4.907,4.9082,4.9101,4.9113,4.913,4.9167,4.9171,4.9185,4.9191,4.9195,4.92,4.9223,4.9231,4.9151,4.9151,4.9151,0,0,4.8987,4.8997,4.9009,4.9034,4.9043,4.9065,4.9043,4.9066,4.9083,4.9067,4.9097,4.9102,4.9115,4.915,4.9165,4.9155,4.9223,4.9199,4.9203,4.9205,4.9228,4.9235,4.9242,4.9153,4.9153,4.9152,0,0,4.903,4.9038,4.9066,4.9076,4.9091,4.9093,4.91,4.9112,4.9116,4.9146,4.9136,4.9155,4.9186,4.9197,4.9207,4.9258,4.9249,4.9263,4.9292,4.9315,4.9322,4.9327,4.9348,4.9355,4.9267,4.9267,4.9267,0,4.9049,4.9082,4.908,4.9106,4.9118,4.9107,4.9135,4.9145,4.9164,4.9173,4.9161,4.9203,4.921,4.925,4.9263,4.9269,4.9278,4.9262,4.9321,4.9326,4.9332,4.9352,4.9359,4.9269,4.9269,4.9269,4.9269,0,4.9106,4.913,4.915,4.9172,4.9186,4.9212,4.9215,4.923,4.9227,4.9231,4.9263,4.9272,4.9293,4.9301,4.9297,4.9341,4.9335,4.9321,4.93,4.9341,4.936,4.9368,4.9272,4.9271,4.9271,4.927,0,0,4.916,4.9183,4.9191,4.9203,4.922,4.9238,4.9265,4.9287,4.9301,4.9315,4.9339,4.9368,4.9357,4.9368,4.9365,4.9385,4.9429,4.937,4.9371,4.9384,4.9482,4.9493,4.9502,4.9423,4.9425,4.9426,4.9482,0,4.9206,4.9255,4.9256,4.93,4.9324,4.9315,4.9339,4.9353,4.9358,4.9378,4.9383,4.9405,4.9387,4.9395,4.9414,4.942,4.9449,4.9415,4.9447,4.9448,4.9446,4.9512,4.9523,4.9576,4.9489,4.949,4.9491,0,4.9265,4.9285,4.9334,4.9352,4.9361,4.9383,4.9405,4.9424,4.944,4.9443,4.9457,4.9452,4.9481,4.9457,4.9498,4.9475,4.9488,4.9493,4.9495,4.9499,4.9473,4.952,4.9592,4.9601,4.9502,4.9501,4.95,0,4.9304,4.9342,4.9377,4.9387,4.9407,4.9424,4.9433,4.9448,4.9462,4.9481,4.9491,4.9512,4.9525,4.9542,4.9543,4.9525,4.9585,4.9561,4.9589,4.9589,4.9603,4.9603,4.9681,4.9608,4.9607,4.9607,4.9607,0,4.9356,4.9387,4.9395,4.9417,4.9452,4.9452,4.9487,4.9494,4.9508,4.9532,4.9524,4.9546,4.9546,4.9569,4.957,4.9605,4.961,4.9613,4.9614,4.9616,4.9616,4.9625,4.9623,4.9609,4.9609,4.9608,4.9608,0,4.9405,4.9412,4.945,4.9468,4.9473,4.9499,4.9514,4.9535,4.954,4.957,4.9577,4.9585,4.9612,4.9615,4.9645,4.9646,4.969,4.9685,4.9685,4.9685,4.9715,4.9713,4.9803,4.9817,4.9732,4.9733,4.9734,0,4.9439,4.9464,4.9486,4.9502,4.9513,4.9538,4.9555,4.9557,4.9573,4.9596,4.9615,4.9641,4.9663,4.9706,4.9714,4.9738,4.9735,4.9766,4.9739,4.9741,4.974,4.9739,4.9743,4.9771,4.9772,4.9773,4.9773,0,4.9501,4.9504,4.9528,4.9554,4.9574,4.9594,4.9613,4.9627,4.9631,4.9651,4.9679,4.9696,4.9729,4.9757,4.9781,4.979,4.9784,4.9782,4.979,4.9793,4.9794,4.9797,4.9702,4.978,4.9779,4.9779,4.9778,4.9778,4.9545,4.9568,4.9588,4.9616,4.9631,4.965,4.9673,4.9682,4.9707,4.9735,4.9734,4.9767,4.9785,4.9817,4.9829,4.9854,4.9844,4.9855,4.9859,4.9862,4.9867,4.9789,4.9858,4.9858,4.9858,4.9857,4.9857,0,4.9609,4.9622,4.9648,4.9677,4.97,4.9693,4.9714,4.9734,4.9763,4.9781,4.9804,4.9838,4.9865,4.9877,4.9904,4.9922,4.992,4.993,4.9929,4.9933,4.9872,4.9864,4.9931,4.9931,4.9931,4.9931,4.9931,4.9931,4.9645,4.9684,4.969,4.9737,4.975,4.9784,4.9797,4.9815,4.983,4.987,4.9894,4.9902,4.9918,4.9947,4.9972,4.9975,4.9986,4.9998,4.9999,4.9943,4.9936,4.9929,4.9921,4.9999,5.0,5.0058,5.0058,5.0058]}]]